Regional Weather Roundup
Issued by NWS

Home | Current Version | Previous Version | Graphics & Text | Print | Product List | Glossary On
Versions: 1 2 3 4 5 6 7 8 9 10 11 12 13 14 15 16 17 18 19 20 21 22 23 24 25 26 27 28 29 30 31 32 33 34 35 36 37 38 39 40 41 42 43 44 45 46 47 48 49 50
000
ASUS45 KSLC 020610
RWRUT

UTAH REGIONAL WEATHER ROUNDUP
NATIONAL WEATHER SERVICE SALT LAKE CITY UT
1200 AM MDT SUN AUG 02 2015

UTZ001>011-023>025-020700-

NORTHERN UTAH

CITY           SKY/WX    TMP DP  RH WIND       PRES   REMARKS
BRIGHAM CITY   PTCLDY    72  41  33 CALM      30.00F
HILL AFB       PTCLDY    77  35  21 E9        30.04S
LOGAN          CLEAR     63  43  48 NE5       30.03S
OGDEN          PTCLDY    75  36  24 S8        30.01S
PROVO AIRPORT  PTCLDY    66  43  42 S5        30.03S
SALT LAKE CITY PTCLDY    76  43  30 S8        29.99F
VERNAL         PTCLDY    69  44  40 W6        30.09S
WENDOVER       MOCLDY    81  32  17 CALM      30.01S
HEBER CITY     PTCLDY    55  43  62 E3        30.13R
WEST JORDAN    CLEAR     75  37  25 CALM      30.04S

$$

UTZ012>022-026-027-020700-

SOUTHERN/CENTRAL UTAH

CITY           SKY/WX    TMP DP  RH WIND       PRES   REMARKS
BLANDING       MOCLDY    67  53  60 N20G25    30.26S
BRYCE CANYON   CLOUDY    61  49  64 W6        30.29F
CEDAR CITY     CLOUDY    69  50  50 SW5       30.13F
DELTA          MOCLDY    75  28  17 NE5       30.02S
HANKSVILLE     CLEAR     79  48  34 CALM      30.05S
MILFORD        CLOUDY    74  50  42 S8        30.07F
MOAB/CYNLANDS  CLEAR     80  51  36 SE7       30.04S
PRICE          PTCLDY    72  45  37 NE7       30.15F
ST GEORGE      PTCLDY    81  54  39 SE3       29.98S
KANAB          CLOUDY    72  55  56 CALM      30.16F

$$

REGIONAL REPORTS     COLORADO/ARIZONA

CITY           SKY/WX    TMP DP  RH WIND       PRES   REMARKS
CRAIG, CO      PTCLDY    61  46  57 NE3       30.16S
GRAND JUNCTION MOCLDY    75  50  41 SE16      30.08F
RIFLE          CLOUDY    70  49  47 CALM      30.15R
MONTROSE       LGT RAIN  65  57  75 SE6       30.22S
CORTEZ         CLEAR     64  59  83 NE5       30.19F
PAGE, AZ       CLOUDY    83  54  36 N3        30.03S
GRAND CANYON   MOCLDY    61  56  83 NE3       30.23F
KINGMAN        MOCLDY    73  56  54 SE7       30.02F
FLAGSTAFF      PTCLDY    58  54  86 CALM      30.27F

$$

REGIONAL REPORTS    NEVADA/IDAHO/WYOMING

CITY           SKY/WX    TMP DP  RH WIND       PRES   REMARKS
LAS VEGAS, NV  CLOUDY    83  58  42 W10G20    29.89S
ELY            CLOUDY    70  41  34 S14       30.22S
ELKO           MOCLDY    78  27  15 E8        30.07S
POCATELLO, ID  CLEAR     63  41  44 W5        30.03F
BURLEY         PTCLDY    64  44  48 SW3       29.98F
EVANSTON, WY   PTCLDY    66  27  23 S6        30.25S
ROCK SPRINGS   CLEAR     66  23  19 N5        30.19S
KEMMERER       CLEAR     61  30  31 N12       30.26S

$$



USA.gov is the U.S. government's official web portal to all federal, state and local government web resources and services.